Location: Campestrin
(46.4667°N, 11.7167°E)
Time: 16:10:24
(UTC+00:00)

ATLAS 5 CENTAUR R/B - Pass Details

Date: 18 April 2021
Orbit: 256 x 14172 km, 60.8° (Epoch: 06 May)

Event Time Altitude Azimuth Distance (km) Brightness Sun altitude
Rises 19:28:46 0° 309° (NW) 1,928 6.6 -13.8°
Reaches altitude 10° 19:30:30 10° 296° (WNW) 1,047 4.7 -14.1°
Maximum altitude 19:32:14 32° 227° (SW) 526 1.9 -14.3°
Enters shadow 19:33:08 22° 182° (S) 756 2.2 -14.5°
